Location: Benalto
(52.3088°N, 114.2787°W)
Time: 05:55:10
(UTC+00:00)

N. Korean satellite - Visible Passes

Search period start: 30 November 2021 00:00
Search period end: 10 December 2021 00:00
Orbit: 447 x 495 km, 97.3° (Epoch: 29 November)

Date Brightness Start Highest point End Pass type
(mag) Time Alt. Az. Time Alt. Az. Time Alt. Az.
30 Nov 7.3 00:08:33 10° S 00:12:04 58° WSW 00:15:34 10° NNW visible
30 Nov 6.5 13:00:53 10° NNE 13:04:19 76° ESE 13:07:42 10° S visible
30 Nov 8.4 14:35:43 10° NW 14:37:00 12° WNW 14:38:16 10° W visible
01 Dec 9.9 01:15:41 10° WSW 01:17:11 12° W 01:18:41 10° WNW visible
01 Dec 8.1 12:32:35 10° NNE 12:35:45 34° E 12:38:52 10° SSE visible
01 Dec 7.7 14:06:10 10° NNW 14:08:47 21° WNW 14:11:23 10° WSW visible
02 Dec 9.2 00:45:34 10° SSW 00:48:27 23° W 00:51:20 10° NW visible
02 Dec 9.3 12:04:43 10° NE 12:07:04 17° E 12:09:24 10° SE visible
02 Dec 6.8 13:37:14 10° N 13:40:28 40° WNW 13:43:38 10° SW visible
03 Dec 7.8 00:16:24 10° S 00:19:49 46° W 00:23:13 10° NNW visible
03 Dec 6.3 13:08:35 10° NNE 13:12:01 87° WNW 13:15:24 10° SSW visible
04 Dec 7.6 12:40:11 10° NNE 12:43:27 42° E 12:46:41 10° S visible
04 Dec 7.9 14:14:02 10° NNW 14:16:23 18° WNW 14:18:44 10° WSW visible
05 Dec 9.5 00:53:34 10° SW 00:56:11 19° W 00:58:46 10° NW visible
05 Dec 9.0 12:12:07 10° NE 12:14:46 21° E 12:17:23 10° SE visible
05 Dec 7.0 13:44:57 10° N 13:48:03 33° WNW 13:51:08 10° SW visible
06 Dec 8.2 00:24:11 10° SSW 00:27:29 38° W 00:30:46 10° NNW visible
06 Dec 9.9 11:45:13 10° ENE 11:45:57 11° E 11:46:41 10° E visible
06 Dec 6.2 13:16:13 10° N 13:19:37 71° WNW 13:22:58 10° SSW visible
07 Dec 7.2 12:47:42 10° NNE 12:51:03 52° E 12:54:21 10° S visible
07 Dec 8.1 14:21:51 10° NNW 14:23:53 15° WNW 14:25:55 10° W visible
08 Dec 9.6 01:01:34 10° SW 01:03:48 16° W 01:06:03 10° NW visible
08 Dec 8.7 12:19:30 10° NE 12:22:22 25° E 12:25:13 10° SSE visible
08 Dec 7.3 13:52:37 10° N 13:55:34 28° WNW 13:58:29 10° SW visible
09 Dec 8.6 00:31:55 10° SSW 00:35:04 31° W 00:38:11 10° NNW visible
09 Dec 9.7 11:51:58 10° ENE 11:53:34 13° E 11:55:09 10° ESE visible
09 Dec 6.4 13:23:46 10° N 13:27:07 57° WNW 13:30:26 10° SSW visible
